Regional Weather Roundup
Issued by NWS

Home | Current Version | Previous Version | Graphics & Text | Print | Product List | Glossary Off
Versions: 1 2 3 4 5 6 7 8 9 10 11 12 13 14 15 16 17 18 19 20 21 22 23 24 25 26 27 28 29 30 31 32 33 34 35 36 37 38 39 40 41 42 43 44 45 46 47 48 49 50

000
ASUS43 KMKX 081011
RWRWI

WISCONSIN REGIONAL WEATHER ROUNDUP
NATIONAL WEATHER SERVICE MILWAUKEE/SULLIVAN WI
400 AM CST MON FEB 08 2016

NOTE: "FAIR" INDICATES FEW OR NO CLOUDS BELOW 12,000 FEET WITH NO
SIGNIFICANT WEATHER AND/OR OBSTRUCTIONS TO VISIBILITY.

WIZ001-002-006>008-014>016-023>028-081100-
NORTHWEST WISCONSIN

CITY           SKY/WX    TMP DP  RH WIND       PRES   REMARKS
SUPERIOR ARPT  LGT SNOW  14   9  81 NW14      29.78R WCI  -1
ASHLAND        LGT SNOW  24  22  91 N8        29.68R FOG     WCI  15
HAYWARD        FLURRIES  17  12  80 VRB6      29.69R WCI   9
SIREN          LGT SNOW  13   9  82 NW14G21   29.77R WCI  -2
CUMBERLAND     LGT SNOW  14  10  85 NW17G23   29.69S VSB 1   WCI  -3
RICE LAKE      SNOW      16  11  82 NW9G16    29.71S VSB 1/2 WCI   4
CHETEK         LGT SNOW  16  11  82 NW7       29.69S WCI   6
LADYSMITH      LGT SNOW  19  16  86 NW15      29.65R WCI   5
EAU CLAIRE     FLURRIES  18  10  71 NW10      29.69R WCI   6
MENOMONIE      FLURRIES  18  11  75 NW13      29.71S WCI   4
NEW RICHMOND   LGT SNOW  14   9  79 NW16      29.76R WCI  -2
OSCEOLA        FLURRIES  14   8  77 NW17G23   29.81R WCI  -2
$$

WIZ003>005-009-010-017-018-081100-
NORTH CENTRAL WISCONSIN

CITY           SKY/WX    TMP DP  RH WIND       PRES   REMARKS
MANITOWISH WTR LGT SNOW  25  24  96 N12G17    29.55R WCI  14
ARBOR VITAE    LGT SNOW  27  25  92 CALM      29.53R
WOODRUFF       LGT SNOW  27  25  92 CALM      29.53R
RHINELANDER    CLOUDY    25  22  88 W8        29.53R WCI  16
EAGLE RIVER    CLOUDY    26  25  95 W5        29.52R WCI  20
LAND O LAKES   CLOUDY    28  27  96 CALM      29.53R
PHILLIPS       LGT SNOW  22  20  92 NW6       29.57R WCI  14
TOMAHAWK       CLOUDY    23  20  89 W7        29.56S WCI  14
MEDFORD        LGT SNOW  20  18  90 NW9       29.58R WCI   9
MERRILL        CLOUDY    24  20  84 NW12      29.57R WCI  13
$$

WIZ029-030-035-036-043>047-081100-
CENTRAL WISCONSIN

CITY           SKY/WX    TMP DP  RH WIND       PRES   REMARKS
WAUSAU         CLOUDY    26  21  81 NW10      29.55S WCI  16
MOSINEE        CLOUDY    23  21  93 W14       29.58R WCI  11
MARSHFIELD     LGT SNOW  21  15  78 NW15      29.59R WCI   8
STEVENS POINT  CLOUDY    24  19  84 W8        29.59R WCI  14
WAUPACA        CLOUDY    31  24  75 W7        29.58R WCI  24
WAUTOMA        CLOUDY    28  24  85 NW10      29.60R WCI  19
WISC RAPIDS    FLURRIES  23  17  78 NW14      29.62S WCI  11
CAMP DOUGLAS   FLURRIES  21  21 100 W15       29.63S WCI   8
$$

WIZ011>013-019>022-031-037>040-048>050-081100-
NORTHEAST WISCONSIN

CITY           SKY/WX    TMP DP  RH WIND       PRES   REMARKS
ANTIGO         CLOUDY    25  23  90 NW9       29.53S WCI  16
SHAWANO        CLOUDY    34  28  79 W3        29.55S
OCONTO         CLOUDY    32  29  90 CALM      29.55R
STURGEON BAY   CLOUDY    34  27  75 SW5       29.57R WCI  30
GREEN BAY      FLURRIES  33  30  88 W7        29.55S WCI  27
MANITOWOC      LGT RAIN  34  28  79 W6        29.56S WCI  29
APPLETON       FLURRIES  32  27  80 W10       29.54S WCI  24
CLINTONVILLE   CLOUDY    32  27  80 W7        29.56S WCI  26
OSHKOSH        FLURRIES  30  25  81 NW8       29.56S WCI  22
$$

WIZ032>034-041-042-053>061-081100-
SOUTHWEST WISCONSIN

CITY           SKY/WX    TMP DP  RH WIND       PRES   REMARKS
LA CROSSE      FLURRIES  19  12  74 NW17      29.71R WCI   4
SPARTA         LGT SNOW  20  17  86 W9        29.68S WCI   9
VIROQUA        CLOUDY    19  14  84 NW17      29.64S WCI   3
BOSCOBEL       LGT SNOW  22  17  81 VRB6      29.69R WCI  14
PRAIRIE DU CHI MIX PCPN  21  13  73 W13       29.71R WCI   8
PLATTEVILLE    CLOUDY    23  21  92 W14       29.65S WCI  10
$$

WIZ056-057-062-063-064-067-068-081100-
SOUTH CENTRAL WISCONSIN

CITY           SKY/WX    TMP DP  RH WIND       PRES   REMARKS
REEDSBURG      CLOUDY    24  19  80 NW12G20   29.62R WCI  13
BARABOO/DELLS  CLOUDY    26  20  77 W9        29.60S WCI  17
LONE ROCK      LGT SNOW  24  19  81 W14       29.65R WCI  12
MINERAL POINT  CLOUDY    25  21  86 W15G21    29.62S WCI  12
MADISON        CLOUDY    30  24  78 NW13      29.59S WCI  20
MIDDLETON      CLOUDY    30  26  84 W13       29.60S WCI  20
WATERTOWN      FLURRIES  31  31 100 NW10      29.58R WCI  22
MONROE         CLOUDY    28  21  74 W17       29.61R WCI  16
JANESVILLE     FLURRIES  32  27  80 W10       29.60R WCI  24
$$

WIZ051-052-058>065-066-070>072-081100-
SOUTHEAST WISCONSIN

CITY           SKY/WX    TMP DP  RH WIND       PRES   REMARKS
MILWAUKEE      CLOUDY    31  27  85 SW8       29.58F WCI  23
WAUKESHA       LGT SNOW  30  30 100 SW5       29.58S VSB 3/4 WCI  25
MILWAUKEE/TIMM FLURRIES  32  28  86 SW3       29.58S
RACINE         CLOUDY    31  26  82 SW7       29.60F WCI  24
BURLINGTON     CLOUDY    31  28  90 SW9       29.59S WCI  23
KENOSHA        CLOUDY    32  28  85 SW9       29.59F WCI  24
FOND DU LAC    CLOUDY    32  28  85 NW8       29.57S WCI  25
SHEBOYGAN      CLOUDY    31  27  85 SW5       29.56S WCI  26
WEST BEND      LGT SNOW  32  30  93 CALM      29.56S
JUNEAU         FLURRIES  30  25  84 W8        29.58R WCI  22
$$

LSZ147-162-081100-
LAKE SUPERIOR

STATION/POSITION TIME  TEMP    WIND        PRES    WAVE
                       AIR SEA DIR/SP/G            HT/PER
                 (UTC) (F)     (DEG/KT/KT) (MB)    (FT/S)
DEVILS ISLAND    1000   20     360/ 22/ 25 1007.1R
PORT WING        0940   23     320/ 15/ 19 1006.8R
SAXON HARBOR     0900   26                 1004.4R
$$

LMZ867-665-643>646-081100-
LAKE MICHIGAN

STATION/POSITION TIME  TEMP    WIND        PRES    WAVE
                       AIR SEA DIR/SP/G            HT/PER
                 (UTC) (F)     (DEG/KT/KT) (MB)    (FT/S)
CHAMBERS ISLAND  0900   33     200/  5/  7 1001.0S
NORTHPORT PIER   0900   34        CALM     1000.7S
KEWAUNEE LAKESHO 0900   34     240/  5/ 10 1000.2F
SHEBOYGAN LAKESH 1000   33     240/  7/  8 1001.9R
PORT WASHINGTON  0900   33     260/  6/  8 1002.7F
MILWAUKEE LAKESH 0910   32     240/ 11/ 12   N/A
KENOSHA   LAKESH 1000   33     240/  6/ 11 1002.7F
$$

TC  - TEMPERATURE IN CELSIUS
VSB - VISIBILITY IN STATUTE MILES
WCI - WIND CHILL INDEX
HX  - HEAT INDEX




USA.gov is the U.S. government's official web portal to all federal, state and local government web resources and services.